星链-4666 (STARLINK-4666 )

导读

STARLINK-4666是美国太空探索技术公司(SpaceX)星链计划中的卫星,于2022年9月11日发射入轨,属于星链低轨互联网星座的组成部分。星链星座旨在提供全球覆盖的高速卫星互联网服务,该卫星承担着为偏远地区、海洋等场景提供网络接入服务的功能。

基本信息
目录编号:
53789
目录名称:
STARLINK-4666
国际标识:
2022-111S
轨道中心:
EARTH
卫星名称:
星链-4666
卫星全名:
星链-4666 (STARLINK-4666 )
卫星状态:
在轨 (已飞行1373 天)
发射日期:
2022-09-11 UTC
国别 :
美国 (US)
星等 :
--
轨道信息
数据来源 国际轨道数据 AOE轨道数据
星历时间 2026-06-15T03:42:33+0800
8小时前
查看轨道信息
2026-06-15T02:00:00+0800
10小时前
查看轨道信息
半长轴 6917.883km 6917.919km
偏心率 0.0001083 0.0001076
轨道倾角 53.157° 53.155°
近地点辐角 84.280° 69.391°
升交点赤经 197.721° 198.043°
平近点角 275.832° 263.657°
近地点 538.996km 539.037km
远地点 540.496km 540.527km
周期 95.438分钟 95.438分钟
每日圈数 15.088394 15.088274
详细信息
固有亮度:
5
最大亮度:
2.5
卫星平台:
Starlink v1.5
覆盖范围:
全球
运营商:
太空探索技术公司
运营商所在国:
美国
制造商(研发单位):
太空探索技术公司
制造商所在国:
美国
使用方式:
暂无
卫星简介
星链(Starlink)计划是由太空探索技术公司(SpaceX)提出的一个巨型低轨卫星互联网星座项目,计划在2019年至2024年间在太空搭建由约1.2万颗卫星组成的“星链”网络,其中1584颗将部署在地球上空550千米处的近地轨道,并从2020年开始工作。该卫星仍在工作。
2D轨道图
3D轨道图
轨道高度分析图
轨道倾角分析图
轨道综合分析图
查看轨道综合分析图